Simultaneous Nadir Overpasses (SNOs) Predictions

Prediction of SNOs between GOES-14 and NOAA-20 Satellite Orbit:

Table of predicted SNOs for the next 14.0 days since TLE Epoch: 12/14/2018
Index Date Time (GOES-14) GOES-14 Lat,Lon NOAA-20 Lat,Lon Distance(km) Time Diff (sec)
1 12/15/2018 20:32:52 0.01,-104.02 -0.73,-107.26 369.89 80
2 12/16/2018 20:16:48 -0.00,-104.03 0.30,-102.74 147.20 80
3 12/18/2018 08:38:38 -0.02,-104.24 0.86,-108.01 430.27 80
4 12/19/2018 08:17:14 -0.00,-104.24 -0.18,-103.49 85.73 80
5 12/21/2018 20:20:27 0.01,-104.02 -0.06,-104.25 26.74 80
6 12/22/2018 20:04:24 -0.00,-104.02 0.97, -99.73 489.96 80
7 12/24/2018 08:26:13 -0.01,-104.24 0.18,-105.00 87.50 80
8 12/25/2018 08:04:49 -0.00,-104.23 -0.85,-100.48 428.10 80
9 12/26/2018 20:26:47 0.02,-104.00 -0.35,-105.78 202.17 80
10 12/27/2018 20:10:42 0.01,-104.00 0.62,-101.24 314.44 80




NCC Satellite Simultaneous Nadir Overpasses (SNOs) Prediction Service
